Regional Weather Roundup
Issued by NWS Charleston, SC

Current Version | Previous Version | Text Only | Print | Product List | Glossary Off
Versions: 1 2 3 4 5 6 7 8 9 10 11 12 13 14 15 16 17 18 19 20 21 22 23 24 25 26 27 28 29 30 31 32 33 34 35 36 37 38 39 40 41 42 43 44 45 46 47 48 49 50

000
ASUS42 KCHS 170625
RWRCHS

REGIONAL WEATHER ROUNDUP
NATIONAL WEATHER SERVICE CHARLESTON SC
200 AM EDT THU APR 17 2014

NOTE: "FAIR" INDICATES FEW OR NO CLOUDS BELOW 12,000 FEET WITH NO
SIGNIFICANT WEATHER AND/OR OBSTRUCTIONS TO VISIBILITY.

NOT ALL STATIONS ARE QUALITY CONTROLLED BY THE NATIONAL
WEATHER SERVICE. USE DATA WITH CAUTION...ESPECIALLY
DEWPOINT OBSERVATIONS.

SCZ027-030-031-034>040-042>050-170700-
...SOUTH CAROLINA...

CITY           SKY/WX    TMP DP  RH WIND       PRES   REMARKS
N CHARLESTON   FAIR      47  40  76 NE7       30.37S
6HR MIN TEMP:  47; 6HR MAX TEMP:  53;

WATERFRONT PRK   N/A     52 N/A N/A N15         N/A
FORT JOHNSON     N/A     52  45  76 NE8       30.41R
MOUNT PLEASANT FAIR     N/A N/A N/A N5        30.36S
JOHNS ISLAND   CLEAR     52  45  76 NE12      30.35F
PINOPOLIS        N/A     50  43  76 NE14      30.30S
MONCKS CORNER  FAIR      46  43  87 NE5       30.38S
SUMMERVILLE    FAIR      41  41 100 CALM      30.38S
BEAUFORT MCAS  FAIR      50  41  71 E12       30.35R
6HR MIN TEMP:  50; 6HR MAX TEMP:  54;

BEAUFORT ARPT  FAIR      52  45  76 NE16G22   30.33S
HILTON HEAD IS MOCLDY    54  45  71 N13G23    30.34S
GEORGETOWN     NOT AVBL
WALTERBORO     FAIR      45  41  87 NE8       30.37F
ORANGEBURG     FAIR      42  37  82 NE6       30.40R
6HR MIN TEMP:  42; 6HR MAX TEMP:  54;

BARNWELL       FAIR      43  37  81 NE6       30.39S
AIKEN          FAIR      41  36  81 CALM      30.42S
MANNING        FAIR      41 N/A N/A CALM      30.40R
KINGSTREE      NOT AVBL
COLUMBIA       FAIR      47  34  60 CALM      30.41R
6HR MIN TEMP:  47; 6HR MAX TEMP:  55;

SUMTER         FAIR      38  32  79 NE7       30.39S WCI  32
6HR MIN TEMP:  37; 6HR MAX TEMP:  50; 6HR PCP: TRACE;

FLORENCE       FAIR      41  34  76 NE8       30.43R
6HR MIN TEMP:  40; 6HR MAX TEMP:  50;

MYRTLE BEACH   NOT AVBL
N MYRTLE BEACH NOT AVBL

$$

GAZ063-065-086>088-099>101-113>116-118-119-134-136>141-150-170700-
...GEORGIA...

CITY           SKY/WX    TMP DP  RH WIND       PRES   REMARKS
SAVANNAH ARPT  FAIR      49  42  77 NE9       30.33S
6HR MIN TEMP:  47; 6HR MAX TEMP:  54;

HUNTER AAF     FAIR      53  43  67 NE6       30.30S
6HR MIN TEMP:  52; 6HR MAX TEMP:  54;

FORT STEWART   FAIR      47  44  90 N6        30.30S
6HR MIN TEMP:  47; 6HR MAX TEMP:  53;

STATESBORO     NOT AVBL
SYLVANIA       FAIR      46  41  83 NE5       30.35F
CLAXTON        FAIR      46  45  93 NE6       30.33F
THOMSON        FAIR      39  37  91 E5        30.43S WCI  36
AUGUSTA-BUSH   FAIR      40  34  79 CALM      30.39S
6HR MIN TEMP:  38; 6HR MAX TEMP:  54;

AUGUSTA-DANIEL FAIR      47  36  65 E7        30.39R
SWAINSBORO     FAIR      45  41  87 NE6       30.34F
VIDALIA        FAIR      46  43  87 NE6       30.32F
ALMA           FAIR      47  41  80 NE7       30.28F
6HR MIN TEMP:  46; 6HR MAX TEMP:  54;

WAYCROSS       NOT AVBL
JESUP          FAIR      46  45  93 NE8       30.28F
BRUNSWICK      CLOUDY    59  50  72 NE15G21   30.26F
SAINT SIMONS   LGT RAIN  58  50  75 NE16G25   30.25F
6HR MIN TEMP:  54; 6HR MAX TEMP:  59; 6HR PCP: TRACE;


$$

SCZ027-028-034-036>038-045-046-048>050-GAZ119-141-170700-
...LAKE AND SUPPLEMENTAL COASTAL OBSERVATIONS...

STATION/POSITION TIME  TEMP    WIND        PRES    WAVE   SWELL
                       AIR SEA DIR/SP/G            HT/PER HT/PER/DIR
                 (UTC) (F)     (DEG/KT/KT) (MB)    (FT/S) (FT/S/D)
UPR LAKE MARION  NOT AVBL
WINYAH BAY       0600   53      50/ 16     1028.0S
LAKE MURRAY      0600   46      50/  2/  8 1029.1S
ACE BASIN NERRS  0600   49      30/  6     1027.0S
FORT PULASKI     0600   58 59   40/ 16/ 20 1026.5F
SAPELO ISLAND    0600   57      50/ 13     1025.0S

$$

ANZ086-088-AMZ330-350-352-354-374-454-470-170700-
...C-MAN AND BUOY OBSERVATIONS...

STATION/POSITION TIME  TEMP    WIND        PRES    WAVE   SWELL
                       AIR SEA DIR/SP/G            HT/PER HT/PER/DIR
                 (UTC) (F)     (DEG/KT/KT) (MB)    (FT/S) (FT/S/D)
FOLLY BEACH CMAN 0600   55      40/ 20/ 23 1027.9F
BUOY 41004       NOT AVBL
BUOY 41008       0600   60 63   50/ 23/ 25 1024.1F   7/ 7   3/ 70/12
5E ST. MARYS GA  0600      64                N/A     7/ 7   2/ 90/11
FRYING PAN BUOY  0600   53 63   50/ 23/ 27 1027.2F   8/ 6
BUOY 41025       NOT AVBL
CAPE LOOKOUT NC  0600   46      20/ 15/ 18 1029.1F
BUOY 41002       NOT AVBL
BUOY 41010       0600   71 76   50/ 19/ 21 1020.4F   8/11   7/ 30/11
BUOY 41012       NOT AVBL
ST AUGUSTINE FL  0600   63      30/ 20/ 22 1022.7F


$$


USA.gov is the U.S. government's official web portal to all federal, state and local government web resources and services.